Weather History for Canadian, TX

Change the Weather History Date:

Friday, March 29, 2013

  Actual Average (KPPA) Record (KPPA)
Temperature  
Mean Temperature 58 °F -  
Max Temperature 71 °F 63 °F 89 °F (1967)
Min Temperature 44 °F 37 °F 15 °F (1987)
Degree Days  
Heating Degree Days 8    
Growing Degree Days 8 (Base 50)    
Moisture  
Dew Point 48 °F    
Average Humidity 80    
Maximum Humidity 99    
Minimum Humidity 44    
Precipitation  
Precipitation 0.00 in - - ()
Sea Level Pressure  
Sea Level Pressure 30.04 in    
Wind  
Wind Speed 2 mph (ESE)    
Max Wind Speed 8 mph    
Max Gust Speed -    
Visibility 8 miles    
Events Fog    
Averages and records for this station are not official NWS values.
T = Trace of Precipitation, MM = Missing Value Source: NWS Daily Summary

Daily Weather History Graph

Daily Weather History Graph

Search for Another Location

Airport:

Trip Planner

Search our weather history database for the weather conditions in past years. The results will help you decide how hot, cold, wet, or windy it might be!

Date:

Astronomy

Mar. 29, 2013 Rise Set
Actual Time 7:31 AM CDT 8:01 PM CDT
Civil Twilight 7:06 AM CDT 8:26 PM CDT
Nautical Twilight 6:36 AM CDT 8:57 PM CDT
Astronomical Twilight 6:05 AM CDT 9:28 PM CDT
Moon 10:56 PM CDT (3/29) 8:47 AM CDT (3/29)
Length of Visible Light 13h 20m
Length of Day
12h 29m
Waning Gibbous, 93% of the Moon is Illuminated
Mar 29
Waning Gibbous
Apr 2
Last Quarter
Apr 10
New
Apr 18
First Quarter
Apr 25
Full

Hourly Weather History & Observations

Time (CDT) Temp. Dew Point Humidity Pressure Visibility Wind Dir Wind Speed Gust Speed Precip Events Conditions
12:15 AM 47.3 °F 41.4 °F 80% 30.05 in 10.0 mi Calm Calm - N/A   Clear
12:35 AM 49.5 °F 42.6 °F 77% 30.05 in 10.0 mi Calm Calm - N/A   Clear
12:55 AM 48.2 °F 41.5 °F 78% 30.05 in 10.0 mi North 3.5 mph - N/A   Clear
1:15 AM 49.1 °F 42.1 °F 77% 30.05 in 10.0 mi Calm Calm - N/A   Clear
1:35 AM 48.7 °F 42.6 °F 79% 30.05 in 10.0 mi Calm Calm - N/A   Clear
1:55 AM 45.5 °F 41.0 °F 84% 30.05 in 10.0 mi Calm Calm - N/A   Clear
2:15 AM 48.4 °F 42.8 °F 81% 30.05 in 10.0 mi East 3.5 mph - N/A   Clear
2:35 AM 48.9 °F 43.5 °F 82% 30.05 in 10.0 mi Calm Calm - N/A   Clear
2:55 AM 48.2 °F 42.8 °F 82% 30.05 in 10.0 mi Calm Calm - N/A   Clear
3:15 AM 45.9 °F 42.1 °F 87% 30.05 in 10.0 mi Calm Calm - N/A   Clear
3:35 AM 47.3 °F 43.0 °F 85% 30.04 in 10.0 mi Calm Calm - N/A   Clear
3:55 AM 48.6 °F 45.3 °F 89% 30.04 in 10.0 mi Calm Calm - N/A   Clear
4:15 AM 48.2 °F 45.7 °F 91% 30.03 in 10.0 mi Calm Calm - N/A   Clear
4:35 AM 44.8 °F 43.2 °F 94% 30.03 in 10.0 mi Calm Calm - N/A   Clear
4:55 AM 45.9 °F 44.8 °F 96% 30.03 in 10.0 mi Calm Calm - N/A   Clear
5:15 AM 45.0 °F 43.5 °F 95% 30.04 in 7.0 mi Calm Calm - N/A   Clear
5:35 AM 45.1 °F 43.9 °F 95% 30.04 in 7.0 mi Calm Calm - N/A   Clear
5:55 AM 45.0 °F 43.9 °F 96% 30.04 in 5.0 mi Calm Calm - N/A   Scattered Clouds
6:15 AM 45.7 °F 45.0 °F 97% 30.04 in 4.0 mi Calm Calm - N/A   Mostly Cloudy
6:35 AM 44.6 °F 43.7 °F 97% 30.04 in 5.0 mi Calm Calm - N/A   Overcast
6:55 AM 46.0 °F 45.1 °F 97% 30.05 in 7.0 mi Calm Calm - N/A   Overcast
7:15 AM 46.9 °F 46.0 °F 97% 30.05 in 1.5 mi Calm Calm - N/A   Overcast
7:35 AM 48.4 °F 47.7 °F 97% 30.06 in 0.2 mi Calm Calm - N/A Fog Fog
7:55 AM 48.2 °F 47.7 °F 98% 30.07 in 0.2 mi North 3.5 mph - N/A Fog Fog
8:15 AM 48.6 °F 48.2 °F 99% 30.08 in 0.2 mi Calm Calm - N/A Fog Fog
8:35 AM 48.6 °F 48.2 °F 99% 30.08 in 0.2 mi Calm Calm - N/A Fog Fog
8:55 AM 49.6 °F 49.1 °F 98% 30.09 in 0.2 mi Calm Calm - N/A Fog Fog
9:15 AM 50.0 °F 49.3 °F 97% 30.09 in 0.2 mi Calm Calm - N/A Fog Fog
9:35 AM 50.4 °F 50.0 °F 99% 30.09 in 0.2 mi Calm Calm - N/A Fog Fog
9:55 AM 50.9 °F 50.4 °F 98% 30.09 in 0.2 mi NNE 3.5 mph - N/A Fog Fog
10:15 AM 51.3 °F 50.9 °F 99% 30.09 in 0.2 mi NNE 5.8 mph - N/A Fog Fog
10:35 AM 51.8 °F 51.3 °F 98% 30.09 in 0.5 mi NNE 5.8 mph - N/A Fog Fog
10:55 AM 52.0 °F 51.8 °F 99% 30.09 in 1.8 mi NNE 4.6 mph - N/A   Overcast
11:15 AM 52.3 °F 52.0 °F 99% 30.09 in 4.0 mi Calm Calm - N/A   Overcast
11:35 AM 52.5 °F 52.2 °F 99% 30.09 in 5.0 mi Calm Calm - N/A   Overcast
11:55 AM 53.2 °F 52.9 °F 99% 30.10 in 7.0 mi Calm Calm - N/A   Overcast
12:15 PM 54.3 °F 53.6 °F 97% 30.09 in 7.0 mi East 4.6 mph - N/A   Overcast
12:35 PM 55.6 °F 53.2 °F 92% 30.09 in 7.0 mi ENE 4.6 mph - N/A   Overcast
12:55 PM 56.7 °F 53.4 °F 89% 30.08 in 10.0 mi East 4.6 mph - N/A   Overcast
1:15 PM 57.4 °F 53.6 °F 87% 30.08 in 10.0 mi ENE 4.6 mph - N/A   Overcast
1:35 PM 58.6 °F 53.6 °F 83% 30.07 in 10.0 mi NE 8.1 mph - N/A   Overcast
1:55 PM 59.7 °F 53.8 °F 81% 30.06 in 10.0 mi NE 4.6 mph - N/A   Overcast
2:15 PM 61.7 °F 54.1 °F 76% 30.05 in 10.0 mi SE 6.9 mph - N/A   Mostly Cloudy
2:35 PM 63.1 °F 53.6 °F 71% 30.04 in 10.0 mi Calm Calm - N/A   Scattered Clouds
2:55 PM 64.4 °F 53.6 °F 68% 30.04 in 10.0 mi SE 5.8 mph - N/A   Clear
3:15 PM 66.0 °F 53.4 °F 64% 30.03 in 10.0 mi SSE 8.1 mph - N/A   Clear
3:35 PM 66.4 °F 53.6 °F 63% 30.02 in 10.0 mi SE 3.5 mph - N/A   Clear
3:55 PM 67.6 °F 53.6 °F 61% 30.00 in 10.0 mi East 6.9 mph - N/A   Clear
4:15 PM 70.0 °F 53.8 °F 56% 29.99 in 10.0 mi South 6.9 mph - N/A   Clear
4:35 PM 70.2 °F 53.6 °F 56% 29.99 in 10.0 mi ESE 6.9 mph - N/A   Clear
4:55 PM 70.0 °F 53.4 °F 56% 29.99 in 10.0 mi SSE 5.8 mph - N/A   Clear
5:15 PM 70.2 °F 52.7 °F 54% 29.99 in 10.0 mi ESE 4.6 mph - N/A   Clear
5:35 PM 70.9 °F 51.1 °F 49% 29.98 in 10.0 mi SE 8.1 mph - N/A   Clear
5:55 PM 71.2 °F 49.5 °F 46% 29.98 in 10.0 mi SE 5.8 mph - N/A   Clear
6:15 PM 70.9 °F 48.4 °F 45% 29.97 in 10.0 mi SE 5.8 mph - N/A   Clear
6:35 PM 71.1 °F 47.8 °F 44% 29.98 in 10.0 mi SSE 6.9 mph - N/A   Clear
6:55 PM 71.2 °F 48.6 °F 45% 29.98 in 10.0 mi South 8.1 mph - N/A   Clear
7:15 PM 70.0 °F 49.1 °F 47% 29.98 in 10.0 mi South 6.9 mph - N/A   Clear
7:35 PM 67.6 °F 48.7 °F 51% 29.98 in 10.0 mi South 5.8 mph - N/A   Clear
7:55 PM 64.8 °F 48.7 °F 56% 29.98 in 10.0 mi SSW 4.6 mph - N/A   Clear
8:15 PM 64.6 °F 48.7 °F 56% 29.98 in 10.0 mi Calm Calm - N/A   Clear
8:35 PM 56.5 °F 47.1 °F 71% 29.97 in 10.0 mi Calm Calm - N/A   Clear
8:55 PM 59.9 °F 48.2 °F 65% 29.98 in 10.0 mi Calm Calm - N/A   Clear
9:15 PM 56.8 °F 46.9 °F 69% 29.98 in 10.0 mi Calm Calm - N/A   Clear
9:35 PM 53.2 °F 45.5 °F 75% 29.99 in 10.0 mi Calm Calm - N/A   Clear
9:55 PM 56.3 °F 46.8 °F 70% 30.00 in 10.0 mi Calm Calm - N/A   Clear
10:15 PM 55.2 °F 46.6 °F 73% 30.01 in 10.0 mi Calm Calm - N/A   Clear
10:35 PM 55.0 °F 46.4 °F 73% 30.02 in 10.0 mi Calm Calm - N/A   Clear
10:55 PM 52.3 °F 45.7 °F 78% 30.02 in 10.0 mi Calm Calm - N/A   Clear
11:15 PM 50.9 °F 45.7 °F 82% 30.02 in 10.0 mi Calm Calm - N/A   Scattered Clouds
11:35 PM 51.3 °F 45.9 °F 82% 30.01 in 10.0 mi West 4.6 mph - N/A   Scattered Clouds
11:55 PM 52.2 °F 46.6 °F 81% 30.00 in 10.0 mi Calm Calm - N/A   Clear